USGS - science for a changing world

Kansas Water Science Center

Jump to content

Jump back to navigation

Current Streamflow Conditions

Welcome to the U.S. Geological Survey (USGS) Web page for the water resources of Kansas. Here you'll find information on Kansas's rivers and streams. You'll also find information about groundwater, water quality, and many other topics. The USGS operates the most extensive satellite network of stream-gaging stations in the state, many of which form the backbone of flood-warning systems.

The Kansas Water Science Center provides current ("real-time") stream stage in Kansas and streamflow, water-quality, and groundwater levels for over 200 sites.
The USGS provides National ("real-time") stream stage and streamflow, water-quality, and groundwater levels for over 7000 sites.

Of Current Interest

News Release: Wichita's Primary Water Supply Source Recovering Due to City's Efforts

News Release: Trends in River Pesticide Levels Echo Pesticide Use

News Release: Insecticides Similar to Nicotine Found in about Half of Sampled Streams across the United States

USGS WaterAlert Service Turn Around Don't Drown

Now you can receive instant, customized updates about water conditions by subscribing to WaterAlert, a new service from the U.S. Geological Survey. WaterAlert allows you to receive daily or hourly updates about current conditions in rivers, lakes and groundwater when they match conditions of concern to you.

Kansas Earthquakes - Last 30 days

  1. 2.6 18km SSE of Anthony, Kansas 2015-10-06 19:45:35 CDT
  2. 2.18 6km S of Anthony, Kansas 2015-10-06 08:18:16 CDT
  3. 1.89 13km ESE of Conway Springs, Kansas 2015-10-04 14:22:25 CDT
  4. 2.46 15km ESE of Harper, Kansas 2015-10-04 06:35:16 CDT
  5. 1.71 13km ESE of Conway Springs, Kansas 2015-10-04 02:41:33 CDT
  6. 2.25 13km ESE of Conway Springs, Kansas 2015-10-03 22:28:30 CDT
  7. 2.9 7km S of Anthony, Kansas 2015-10-03 12:33:06 CDT
  8. 2.32 8km ENE of Caldwell, Kansas 2015-10-03 04:46:07 CDT
  9. 1.88 5km SSW of Harper, Kansas 2015-10-03 02:34:48 CDT
  10. 3.3 10km NW of Caldwell, Kansas 2015-10-03 00:11:58 CDT
  11. 1.77 6km S of Harper, Kansas 2015-10-02 18:43:38 CDT
  12. 1.92 7km NE of Anthony, Kansas 2015-10-02 12:14:29 CDT
  13. 2 8km ENE of Caldwell, Kansas 2015-10-01 01:08:47 CDT
  14. 1.95 8km ENE of Caldwell, Kansas 2015-09-30 22:45:46 CDT
  15. 2.62 16km W of Wellington, Kansas 2015-09-30 04:05:23 CDT
  16. 1.98 6km SSE of Anthony, Kansas 2015-09-30 02:10:44 CDT
  17. 1.86 17km S of Anthony, Kansas 2015-09-28 22:29:24 CDT
  18. 1.9 7km ENE of Caldwell, Kansas 2015-09-28 05:48:52 CDT
  19. 1.82 7km ENE of Caldwell, Kansas 2015-09-28 05:39:00 CDT
  20. 2.5 8km ENE of Caldwell, Kansas 2015-09-27 20:39:50 CDT
  21. 1.96 11km NW of Caldwell, Kansas 2015-09-24 20:16:13 CDT
  22. 1.88 7km SE of Harper, Kansas 2015-09-24 19:38:37 CDT
  23. 2.07 11km NW of Caldwell, Kansas 2015-09-24 19:20:17 CDT
  24. 1.96 11km ESE of Caldwell, Kansas 2015-09-24 14:25:44 CDT
  25. 2.36 18km E of Anthony, Kansas 2015-09-22 11:19:02 CDT
  26. 1.68 18km E of Anthony, Kansas 2015-09-22 11:18:54 CDT
  27. 1.79 8km ENE of Caldwell, Kansas 2015-09-22 02:55:33 CDT
  28. 2.43 15km ESE of Harper, Kansas 2015-09-21 23:53:21 CDT
  29. 1.9 15km ESE of Harper, Kansas 2015-09-21 06:27:12 CDT
  30. 2.09 3km SSE of Caldwell, Kansas 2015-09-20 07:47:38 CDT
  31. 3 15km SE of Anthony, Kansas 2015-09-20 06:17:52 CDT
  32. 1.79 6km N of Caldwell, Kansas 2015-09-20 00:17:12 CDT
  33. 2.27 7km NE of Anthony, Kansas 2015-09-19 23:46:07 CDT
  34. 1.96 7km NE of Anthony, Kansas 2015-09-19 17:35:06 CDT
  35. 2.35 3km SSE of Caldwell, Kansas 2015-09-19 12:13:34 CDT
  36. 1.9 11km NNE of Caldwell, Kansas 2015-09-19 11:22:39 CDT
  37. 3.7 27km SW of Pratt, Kansas 2015-09-17 21:12:01 CDT
  38. 2.33 15km ESE of Harper, Kansas 2015-09-17 03:00:52 CDT
  39. 2.3 4km SSW of Harper, Kansas 2015-09-16 05:07:58 CDT
  40. 2.02 14km SE of Anthony, Kansas 2015-09-15 15:47:15 CDT
  41. 2.31 7km ENE of Caldwell, Kansas 2015-09-15 12:24:52 CDT
  42. 1.79 7km ENE of Caldwell, Kansas 2015-09-15 08:35:20 CDT
  43. 1.86 7km ENE of Caldwell, Kansas 2015-09-15 00:29:21 CDT
  44. 2.9 8km ENE of Caldwell, Kansas 2015-09-14 16:34:51 CDT
  45. 2.22 7km ENE of Caldwell, Kansas 2015-09-14 08:02:37 CDT
  46. 2.31 6km S of Harper, Kansas 2015-09-13 22:25:47 CDT
  47. 1.99 13km SE of Anthony, Kansas 2015-09-13 19:43:20 CDT
  48. 1.77 13km SE of Anthony, Kansas 2015-09-13 18:41:43 CDT
  49. 2.17 13km SE of Anthony, Kansas 2015-09-13 18:16:34 CDT
  50. 2.04 13km SE of Anthony, Kansas 2015-09-13 16:56:24 CDT
  51. 2.03 13km SE of Anthony, Kansas 2015-09-13 14:45:23 CDT
  52. 1.82 13km SE of Anthony, Kansas 2015-09-13 14:01:17 CDT
  53. 1.75 13km SE of Anthony, Kansas 2015-09-13 13:39:11 CDT
  54. 1.85 7km ENE of Caldwell, Kansas 2015-09-13 03:36:53 CDT
  55. 2.5 7km ENE of Caldwell, Kansas 2015-09-12 23:15:55 CDT
  56. 1.91 13km SE of Anthony, Kansas 2015-09-12 16:08:28 CDT
  57. 2.5 7km ENE of Caldwell, Kansas 2015-09-12 12:45:05 CDT
  58. 2.4 7km ENE of Caldwell, Kansas 2015-09-12 12:40:38 CDT
  59. 2.14 13km SE of Anthony, Kansas 2015-09-12 10:26:04 CDT
  60. 2.3 14km SSE of Conway Springs, Kansas 2015-09-12 08:12:31 CDT
  61. 1.75 13km SE of Anthony, Kansas 2015-09-11 23:42:07 CDT
  62. 3.3 13km SE of Anthony, Kansas 2015-09-11 19:55:33 CDT
  63. 2.5 21km SE of Anthony, Kansas 2015-09-11 11:39:17 CDT
  64. 1.85 14km SE of Anthony, Kansas 2015-09-11 09:59:13 CDT
  65. 1.75 16km SSE of Conway Springs, Kansas 2015-09-10 17:08:07 CDT
  66. 1.85 7km SSW of Anthony, Kansas 2015-09-10 12:24:49 CDT
  67. 1.96 10km SSE of Conway Springs, Kansas 2015-09-09 02:47:24 CDT
  68. 1.82 15km SE of Anthony, Kansas 2015-09-09 01:16:21 CDT
  69. 2.29 6km SSE of Harper, Kansas 2015-09-07 19:33:29 CDT
  70. 1.9 16km W of Wellington, Kansas 2015-09-07 15:13:35 CDT
  71. 2.1 4km SW of Harper, Kansas 2015-09-07 04:02:38 CDT

Highlighted Publications

The Kansas Water Science Center produces publications about water resources.   Search icon Search our publications

Groundwater-level and storage-volume changes in the <i>Equus</i> Beds aquifer near Wichita, Kansas, predevelopment through January 2015 Water quality of the Little Arkansas River and <i>Equus</i> Beds Aquifer before and concurrent with large-scale artificial recharge, south-central Kansas, 1995-2012 Water quality of the Little Arkansas River and <i>Equus</i> Beds Aquifer before and concurrent with large-scale artificial recharge, south-central Kansas, 1995-2012 U.S. Geological Survey quality-assurance plan for surface-water activities in Kansas, 2015 Summary of hydrologic conditions in Kansas, water year 2014 Flood-inundation maps for Indian Creek and Tomahawk Creek, Johnson County, Kansas, 2014 Occurrence and trends of selected nutrients, other chemical constituents, diatoms, and cyanobacteria in bottom sediment, Lake Maxinkuckee, northern Indiana Quality-assurance and data-management plan for water-quality activities in the Kansas Water Science Center, 2014 Public-supply water use in Kansas, 1990-2012 Colorimetric microtiter plate receptor-binding assay for the detection of freshwater and marine neurotoxins targeting the nicotinic acetylcholine receptors Status of groundwater levels and storage volume in the <i>Equus</i> Beds aquifer near Wichita, Kansas, 2012 to 2014 Relations between continuous real-time turbidity data and discrete suspended-sediment concentration samples in the Neosho and Cottonwood Rivers, east-central Kansas, 2009-2012 Water-level changes and change in water in storage in the High Plains aquifer, predevelopment to 2013 and 2011-13
07156900: Flow=18cfs,Stage=2.21ft,Floodstage=5ft,2015-10-06 22:00,<10,Cimarron River near Forgan, OK 07142300: Flow=0.00cfs,Stage=2.33ft,Floodstage=9ft,2015-10-06 22:00,<10,RATTLESNAKE C NR MACKSVILLE, KS 06884400: Flow=93cfs,Stage=3.47ft,Floodstage=21ft,2015-10-06 21:30,<10,L BLUE R NR BARNES, KS 06877600: Flow=145cfs,Stage=5.73ft,Floodstage=26ft,2015-10-06 21:45,<10,SMOKY HILL R AT ENTERPRISE, KS 06876000: Flow=7.8cfs,Stage=2.63ft,2015-10-06 21:45,<10,SOLOMON R AT BELOIT, KS 06875900: Flow=10cfs,Stage=7.27ft,Floodstage=21ft,2015-10-06 21:30,<10,SOLOMON R NR GLEN ELDER, KS 06873460: Flow=0.01cfs,Stage=3.76ft,Floodstage=12ft,2015-10-06 21:30,<10,SF SOLOMON R AT WOODSTON, KS 06866500: Flow=26cfs,Stage=3.89ft,Floodstage=20ft,2015-10-06 21:45,<10,SMOKY HILL R NR MENTOR, KS 06866000: Flow=26cfs,Stage=6.21ft,2015-10-06 22:30,<10,SMOKY HILL R AT LINDSBORG, KS 06824000: Flow=5.9cfs,Stage=0.60ft,2015-10-06 20:45,<10,Rock Creek at Parks, Nebr. 06868200: Flow=3.2cfs,Stage=2.69ft,2015-10-06 21:45,<10,SALINE R AT WILSON DAM, KS 06865500: Flow=7.5cfs,Stage=3.15ft,2015-10-06 22:30,<10,SMOKY HILL R NR LANGLEY, KS 06864500: Flow=3.4cfs,Stage=0.82ft,Floodstage=20ft,2015-10-06 21:30,<10,SMOKY HILL R AT ELLSWORTH, KS 06864000: Flow=0.05cfs,Stage=2.95ft,2015-10-06 21:30,<10,SMOKY HILL R NR RUSSELL, KS 06863500: Flow=0.00cfs,Stage=4.47ft,Floodstage=26ft,2015-10-06 21:45,<10,BIG C NR HAYS, KS 06821500: Flow=0.00cfs,Stage=3.78ft,Floodstage=12ft,2015-10-06 20:30,<10,Arikaree River at Haigler, Nebr. 07179795: Flow=13cfs,Stage=4.88ft,2015-10-06 21:30,76-90,N COTTONWOOD R BL MARION LK, KS 06893080: Flow=3.8cfs,Stage=3.81ft,Floodstage=16ft,2015-10-06 21:45,76-90,BLUE R NR STANLEY, KS 06852500: Flow=35cfs,Stage=0.82ft,2015-10-06 22:15,76-90,Courtland Canal at Nebraska-Kansas Stateline 07170500: Flow=24cfs,Stage=1.60ft,Floodstage=30ft,2015-10-06 22:00,10-24,VERDIGRIS R AT INDEPENDENCE, KS 07144910: Flow=5.2cfs,Stage=2.41ft,Floodstage=9ft,2015-10-06 22:00,10-24,SF NINNESCAH R NR PRATT, KS 07144780: Flow=15cfs,Stage=5.77ft,2015-10-06 21:00,10-24,NF NINNESCAH R AB CHENEY RE, KS 07143665: Flow=0.94cfs,Stage=-0.49ft,Floodstage=22ft,2015-10-06 22:15,10-24,L ARKANSAS R AT ALTA MILLS, KS 07143330: Flow=90cfs,Stage=1.82ft,Floodstage=10ft,2015-10-06 21:30,10-24,ARKANSAS R NR HUTCHINSON, KS 07142575: Flow=1.4cfs,Stage=11.29ft,Floodstage=17ft,2015-10-06 21:30,10-24,RATTLESNAKE C NR ZENITH, KS 06892350: Flow=1390cfs,Stage=4.72ft,Floodstage=26ft,2015-10-06 21:45,10-24,KANSAS R AT DESOTO, KS 06891000: Flow=1270cfs,Stage=2.20ft,Floodstage=17ft,2015-10-06 22:30,10-24,KANSAS R AT LECOMPTON, KS 06887000: Flow=183cfs,Stage=0.73ft,Floodstage=19ft,2015-10-06 22:00,10-24,BIG BLUE R NR MANHATTAN, KS 06884025: Flow=72cfs,Stage=1.48ft,Floodstage=19ft,2015-10-06 22:00,10-24,Little Blue River at Hollenberg, KS 06876700: Flow=0.53cfs,Stage=3.40ft,Floodstage=18ft,2015-10-06 21:45,10-24,SALT C NR ADA, KS 06872500: Flow=12cfs,Stage=3.81ft,Floodstage=15ft,2015-10-06 21:30,10-24,NF SOLOMON R AT PORTIS, KS 06869500: Flow=14cfs,Stage=4.53ft,Floodstage=25ft,2015-10-06 21:30,10-24,SALINE R AT TESCOTT, KS 06862700: Flow=0.00cfs,Stage=2.92ft,2015-10-06 21:30,10-24,SMOKY HILL R NR SCHOENCHEN, KS 06856600: Flow=117cfs,Stage=6.56ft,Floodstage=15ft,2015-10-06 22:30,10-24,REPUBLICAN R AT CLAY CENTER, KS 06856000: Flow=78cfs,Stage=4.44ft,Floodstage=15ft,2015-10-06 22:30,10-24,REPUBLICAN R AT CONCORDIA, KS 06854500: Flow=50cfs,Stage=0.30ft,2015-10-06 22:15,10-24,REPUBLICAN R AT SCANDIA, KS 06853500: Flow=24cfs,Stage=1.22ft,Floodstage=11ft,2015-10-06 21:30,10-24,REPUBLICAN R NR HARDY, NE 06823500: Flow=2.4cfs,Stage=1.03ft,Floodstage=11ft,2015-10-06 20:45,10-24,Buffalo Creek near Haigler, Nebr. 07188000: Flow=490cfs,Stage=5.64ft,Floodstage=20ft,2015-10-06 22:00,25-75,Spring River near Quapaw, OK 07186000: Flow=157cfs,Stage=1.58ft,Floodstage=19ft,2015-10-06 21:30,25-75,Spring River near Waco, MO 07185000: Flow=257cfs,Stage=3.09ft,Floodstage=15ft,2015-10-06 22:30,25-75,Neosho River near Commerce, OK 07184000: Flow=0.53cfs,Stage=1.05ft,Floodstage=12ft,2015-10-06 21:45,25-75,LIGHTNING C NR MCCUNE, KS 07183500: Flow=136cfs,Stage=7.23ft,Floodstage=21ft,2015-10-06 22:00,25-75,NEOSHO R NR PARSONS, KS 07183000: Flow=132cfs,Stage=6.94ft,Floodstage=15ft,2015-10-06 21:00,25-75,NEOSHO R NR IOLA, KS 07182510: Flow=39cfs,Stage=5.76ft,Floodstage=27ft,2015-10-06 22:15,25-75,NEOSHO R AT BURLINGTON, KS 07182250: Flow=65cfs,Stage=2.10ft,Floodstage=32ft,2015-10-06 22:00,25-75,COTTONWOOD R NR PLYMOUTH, KS 07180500: Flow=8.8cfs,Stage=4.22ft,2015-10-06 22:15,25-75,CEDAR C NR CEDAR POINT, KS 07180400: Flow=57cfs,Stage=3.14ft,Floodstage=22ft,2015-10-06 22:00,25-75,COTTONWOOD R NR FLORENCE, KS 07179730: Flow=15cfs,Stage=2.75ft,Floodstage=26ft,2015-10-06 22:15,25-75,NEOSHO R NR AMERICUS, KS 07179500: Flow=15cfs,Stage=8.13ft,2015-10-06 22:00,25-75,NEOSHO R AT COUNCIL GROVE, KS 07172000: Flow=1.3cfs,Stage=1.37ft,2015-10-06 22:00,25-75,CANEY R NR ELGIN, KS 07169800: Flow=1.5cfs,Stage=2.13ft,2015-10-06 22:00,25-75,ELK R AT ELK FALLS, KS 07169500: Flow=14cfs,Stage=2.79ft,Floodstage=17ft,2015-10-06 22:00,25-75,FALL R AT FREDONIA, KS 07167500: Flow=0.28cfs,Stage=2.02ft,2015-10-06 22:15,25-75,OTTER C AT CLIMAX, KS 07166500: Flow=10cfs,Stage=3.28ft,Floodstage=19ft,2015-10-06 21:45,25-75,VERDIGRIS R NR ALTOONA, KS 07157500: Flow=3.4cfs,Stage=2.33ft,Floodstage=6.5ft,2015-10-06 21:30,25-75,CROOKED C NR ENGLEWOOD, KS 07151500: Flow=39cfs,Stage=2.04ft,Floodstage=10ft,2015-10-06 22:00,25-75,CHIKASKIA R NR CORBIN, KS 07149000: Flow=29cfs,Stage=0.29ft,Floodstage=10ft,2015-10-06 22:30,25-75,MEDICINE LODGE R NR KIOWA, KS 07147800: Flow=74cfs,Stage=1.05ft,Floodstage=18ft,2015-10-06 22:00,25-75,WALNUT R AT WINFIELD, KS 07147070: Flow=10cfs,Stage=1.56ft,Floodstage=22ft,2015-10-06 21:30,25-75,WHITEWATER R AT TOWANDA, KS 07146500: Flow=365cfs,Stage=3.23ft,Floodstage=11ft,2015-10-06 22:00,25-75,ARKANSAS R AT ARKANSAS CITY, KS 07145700: Flow=1.6cfs,Stage=3.56ft,Floodstage=19ft,2015-10-06 22:00,25-75,SLATE C AT WELLINGTON, KS 07145500: Flow=88cfs,Stage=2.73ft,Floodstage=17ft,2015-10-06 22:00,25-75,NINNESCAH R NR PECK, KS 07145200: Flow=82cfs,Stage=3.62ft,Floodstage=8ft,2015-10-06 22:00,25-75,SF NINNESCAH R NR MURDOCK, KS 07144550: Flow=362cfs,Stage=1.33ft,Floodstage=12ft,2015-10-06 22:00,25-75,ARKANSAS R AT DERBY, KS 07144300: Flow=159cfs,Stage=2.77ft,2015-10-06 21:45,25-75,ARKANSAS R AT WICHITA, KS 07144200: Flow=31cfs,Stage=0.84ft,2015-10-06 22:00,25-75,L ARKANSAS R AT VALLEY CENTER, KS 07143300: Flow=3.0cfs,Stage=4.06ft,Floodstage=18ft,2015-10-06 21:30,25-75,COW C NR LYONS, KS 07141300: Flow=13cfs,Stage=1.28ft,Floodstage=12ft,2015-10-06 21:30,25-75,ARKANSAS R AT GREAT BEND, KS 07138000: Flow=123cfs,Stage=4.36ft,Floodstage=10ft,2015-10-06 22:15,25-75,ARKANSAS R AT SYRACUSE, KS 07137500: Flow=145cfs,Stage=3.02ft,Floodstage=8ft,2015-10-06 22:15,25-75,ARKANSAS R NR COOLIDGE, KS 06917500: Flow=3.2cfs,Stage=6.78ft,Floodstage=38ft,2015-10-06 22:30,25-75,MARMATON R NR FORT SCOTT, KS 06917000: Flow=0.91cfs,Stage=2.73ft,Floodstage=22ft,2015-10-06 22:15,25-75,L OSAGE R AT FULTON, KS 06916600: Flow=62cfs,Stage=3.74ft,Floodstage=27ft,2015-10-06 21:45,25-75,MARAIS DES CYGNES R NR KS-MO ST LINE, KS 06915800: Flow=64cfs,Stage=3.93ft,Floodstage=25ft,2015-10-06 22:15,25-75,MARAIS DES CYGNES R AT LA CYGNE, KS 06915000: Flow=9.3cfs,Stage=2.02ft,2015-10-06 21:30,25-75,BIG BULL C NR HILLSDALE, KS 06913500: Flow=34cfs,Stage=3.46ft,Floodstage=31ft,2015-10-06 21:30,25-75,MARAIS DES CYGNES R NR OTTAWA, KS 06913000: Flow=34cfs,Stage=1.23ft,Floodstage=20ft,2015-10-06 21:30,25-75,MARAIS DES CYGNES R NR POMONA, KS 06912500: Flow=18cfs,Stage=2.80ft,2015-10-06 21:45,25-75,HUNDRED AND TEN MILE C NR QUENEMO, KS 06911900: Flow=0.05cfs,Stage=7.86ft,2015-10-06 22:00,25-75,DRAGOON C NR BURLINGAME, KS 06911000: Flow=15cfs,Stage=2.06ft,2015-10-06 21:45,25-75,MARAIS DES CYGNES R AT MELVERN, KS 06910800: Flow=0.68cfs,Stage=1.96ft,Floodstage=19ft,2015-10-06 21:45,25-75,MARAIS DES CYGNES R NR READING, KS 06893500: Flow=28cfs,Stage=4.17ft,Floodstage=34ft,2015-10-06 21:45,25-75,Blue River at Kansas City, MO 06893300: Flow=14cfs,Stage=5.67ft,Floodstage=14ft,2015-10-06 22:15,25-75,INDIAN C AT OVERLAND PARK, KS 06893000: Flow=51500cfs,Stage=12.05ft,Floodstage=32ft,2015-10-06 21:30,25-75,Missouri River at Kansas City, MO 06892000: Flow=10cfs,Stage=2.16ft,Floodstage=23ft,2015-10-06 21:30,25-75,STRANGER C NR TONGANOXIE, KS 06891500: Flow=9.1cfs,Stage=4.27ft,Floodstage=23ft,2015-10-06 21:45,25-75,WAKARUSA R NR LAWRENCE, KS 06890900: Flow=65cfs,Stage=27.42ft,2015-10-06 21:45,25-75,DELAWARE R AT PERRY, KS 06890100: Flow=20cfs,Stage=2.18ft,Floodstage=27ft,2015-10-06 21:45,25-75,DELAWARE R NR MUSCOTAH, KS 06889500: Flow=8.9cfs,Stage=-0.11ft,Floodstage=29ft,2015-10-06 22:00,25-75,SOLDIER C NR TOPEKA, KS 06889200: Flow=2.3cfs,Stage=6.35ft,Floodstage=26ft,2015-10-06 21:30,25-75,SOLDIER C NR DELIA, KS 06889000: Flow=1250cfs,Stage=5.24ft,Floodstage=26ft,2015-10-06 21:30,25-75,KANSAS R AT TOPEKA, KS 06888500: Flow=20cfs,Stage=2.24ft,Floodstage=21ft,2015-10-06 21:45,25-75,MILL C NR PAXICO, KS 06888000: Flow=6.9cfs,Stage=3.78ft,2015-10-06 21:45,25-75,VERMILLION C NR WAMEGO, KS 06885500: Flow=6.3cfs,Stage=3.23ft,Floodstage=19ft,2015-10-06 21:30,25-75,BLACK VERMILLION R NR FRANKFORT, KS 06884200: Flow=3.5cfs,Stage=1.53ft,Floodstage=18ft,2015-10-06 21:45,25-75,MILL C AT WASHINGTON, KS 06882510: Flow=317cfs,Stage=12.08ft,Floodstage=35ft,2015-10-06 21:30,25-75,BIG BLUE R AT MARYSVILLE, KS 06882000: Flow=242cfs,Stage=3.95ft,Floodstage=20ft,2015-10-06 22:00,25-75,Big Blue River at Barneston, Nebr. 06879100: Flow=615cfs,Stage=5.70ft,Floodstage=21ft,2015-10-06 21:30,25-75,KANSAS R AT FORT RILEY, KS 06878000: Flow=8.9cfs,Stage=3.79ft,Floodstage=19ft,2015-10-06 21:45,25-75,CHAPMAN C NR CHAPMAN, KS 06876900: Flow=80cfs,Stage=3.23ft,Floodstage=24ft,2015-10-06 21:30,25-75,SOLOMON R AT NILES, KS 06861000: Flow=0.37cfs,Stage=0.58ft,Floodstage=7ft,2015-10-06 21:30,25-75,SMOKY HILL R NR ARNOLD, KS 06857100: Flow=416cfs,Stage=5.93ft,2015-10-06 21:45,25-75,REPUBLICAN R AT JUNCTION CITY, KS 06853800: Flow=2.3cfs,Stage=1.52ft,Floodstage=16ft,2015-10-06 21:45,25-75,WHITE ROCK C NR BURR OAK, KS 06818000: Flow=51200cfs,Stage=9.83ft,Floodstage=17ft,2015-10-06 21:30,25-75,Missouri River at St. Joseph, MO 06815000: Flow=94cfs,Stage=4.07ft,Floodstage=27ft,2015-10-06 21:45,25-75,Big Nemaha River at Falls City, Nebr. 06814000: Flow=11cfs,Stage=1.26ft,Floodstage=21ft,2015-10-06 21:45,25-75,TURKEY C NR SENECA, KS 06813500: Flow=47800cfs,Stage=10.43ft,Floodstage=17ft,2015-10-06 21:30,25-75,Missouri River at Rulo, NE 385608094380300: Flow=17cfs,2013-07-10 23:45,Not ranked,INDIAN C AT INDIAN C PKWY, OVERLAND PARK, KS 385520094420000: Flow=15cfs,2013-07-17 23:45,Not ranked,INDIAN C AT COLLEGE BLVD, JOHNSON CO, KS 385446094430700: Flow=0.44cfs,2013-07-17 23:45,Not ranked,INDIAN C AT 119TH ST, OVERLAND PARK, KS 375350097262800: Stage=4.38ft,2015-10-06 22:00,Not ranked,L ARKANSAS R UPSTREAM OF ASR FAC NR SEDGWICK, KS 07187600: Flow=538cfs,Stage=3.22ft,Floodstage=14ft,2015-10-06 21:30,Not ranked,SPRING R NR BAXTER SPRINGS, KS 07186055: Flow=9.9cfs,Stage=5.40ft,2015-10-06 21:45,Not ranked,COW C NR SCAMMON, KS 07185090: Flow=1.8cfs,Stage=8.37ft,2015-10-06 22:15,Not ranked,Tar Creek near Commerce, OK 07184500: Flow=4.6cfs,Stage=5.68ft,2015-10-06 22:00,Not ranked,LABETTE C NR OSWEGO, KS 07183300: Stage=11.49ft,2015-10-06 22:15,Not ranked,NEOSHO R NR ERIE, KS 07182390: Flow=112cfs,Stage=0.75ft,Floodstage=22ft,2015-10-06 22:30,Not ranked,NEOSHO R AT NEOSHO RAPIDS, KS 07182260: Flow=76cfs,Stage=1.45ft,2015-10-06 22:30,Not ranked,COTTONWOOD R AT EMPORIA, KS 07182200: Flow=2.6cfs,Stage=6.27ft,2015-10-06 21:30,Not ranked,SF COTTONWOOD R NR BAZAAR, KS 07180200: Stage=5.06ft,2015-10-06 21:30,Not ranked,COTTONWOOD R AT MARION, KS 07179750: Flow=4.9cfs,Stage=3.22ft,2015-10-06 22:30,Not ranked,NEOSHO R AT BURLINGAME RD NR EMPORIA, KS 07179710: Stage=10.89ft,2015-10-06 21:00,Not ranked,NEOSHO R NR DUNLAP, KS 07179700: Flow=1.3cfs,Stage=8.80ft,2015-10-06 22:15,Not ranked,ROCK C NR DUNLAP, KS 07179300: Flow=0.37cfs,Stage=7.59ft,2015-10-06 21:30,Not ranked,NEOSHO R NR PARKERVILLE, KS 07170990: Flow=40cfs,Stage=2.55ft,2015-10-06 21:45,Not ranked,VERDIGRIS R AT COFFEYVILLE, KS 07170700: Stage=2.72ft,2015-10-06 21:00,Not ranked,BIG HILL C NR CHERRYVALE, KS 07165750: Flow=2.0cfs,Stage=6.74ft,2015-10-06 22:00,Not ranked,VERDIGRIS R NR VIRGIL, KS 07157940: Flow=1.1cfs,Stage=5.36ft,2015-10-06 22:00,Not ranked,BLUFF C NR BUTTERMILK, KS 07157740: Flow=1.4cfs,Stage=7.15ft,2015-10-06 22:30,Not ranked,CIMARRON R NR BUTTERMILK, KS 07148111: Flow=5.9cfs,Stage=3.65ft,2015-10-06 22:30,Not ranked,GROUSE C NR SILVERDALE, KS 07147900: Stage=2.72ft,Floodstage=18ft,2015-10-06 22:15,Not ranked,WALNUT R AT ARKANSAS CITY, KS 07147190: Stage=3.89ft,Floodstage=21ft,2015-10-06 22:15,Not ranked,WHITEWATER R AT AUGUSTA, KS 07146800: Flow=3.0cfs,Stage=5.61ft,Floodstage=21ft,2015-10-06 22:00,Not ranked,WB WALNUT R NR EL DORADO, KS 07145600: Flow=432cfs,Stage=7.73ft,2015-10-06 21:45,Not ranked,ARKANSAS R ON HWY 160 AT OXFORD, KS 07144790: Stage=1421.30ft,2015-10-06 22:00,Not ranked,CHENEY RE NR CHENEY, KS 07144570: Flow=397cfs,Stage=6.05ft,2015-10-06 22:15,Not ranked,ARKANSAS R AT MULVANE, KS 07144490: Flow=3.0cfs,Stage=7.26ft,2015-10-06 22:15,Not ranked,COWSKIN C AT KELLOGG ST, WICHITA, KS 07144486: Flow=0.00cfs,Stage=4.55ft,2015-10-06 22:00,Not ranked,CALFSKIN C AT 119TH ST, WICHITA, KS 07144480: Flow=1.9cfs,Stage=7.06ft,Floodstage=18ft,2015-10-06 21:30,Not ranked,COWSKIN C AT 119TH ST AT WICHITA, KS 07144470: Stage=10.82ft,2015-10-06 22:15,Not ranked,COWSKIN C AT 29TH ST NORTH OF WICHITA, KS 07144301: Flow=0.00cfs,Stage=6.48ft,2015-10-06 21:45,Not ranked,FLOODWAY AT ARKANSAS R AT WICHITA, KS 07144201: Not ranked,Equipment malfunction,FLOODWAY AT L ARKANSAS R AT VALLEY CENTER, KS 07144100: Flow=20cfs,Stage=2.52ft,Floodstage=22ft,2015-10-06 22:15,Not ranked,L ARKANSAS R NR SEDGWICK, KS 07144050: Flow=2.3cfs,Stage=6.27ft,2015-10-06 22:15,Not ranked,EMMA C AT SEDGWICK, KS 07143672: Flow=10cfs,Stage=5.70ft,Floodstage=25ft,2015-10-06 21:00,Not ranked,L ARKANSAS R AT HWY 50 NR HALSTEAD, KS 07143375: Flow=187cfs,Stage=4.79ft,2015-10-06 22:15,Not ranked,ARKANSAS R NR MAIZE, KS 07143310: Stage=1.46ft,Floodstage=9.5ft,2015-10-06 22:15,Not ranked,COW C NR HUTCHINSON, KS 07142680: Flow=63cfs,Stage=8.69ft,2015-10-06 22:00,Not ranked,ARKANSAS R NR NICKERSON, KS 07142020: Flow=3.4cfs,2010-09-29 23:45,Not ranked,WALNUT C BLW CHEYENNE BTMS DV NR GREAT BEND, KS 07142019: Flow=0.00cfs,Stage=1.30ft,2015-10-06 22:00,Not ranked,CHEYENNE BOTTOMS DV NR GREAT BEND, KS 07141900: Flow=0.00cfs,Stage=2.35ft,Floodstage=24ft,2015-10-06 21:45,Not ranked,WALNUT C AT ALBERT, KS 07141780: Flow=0.00cfs,Stage=5.58ft,Floodstage=29ft,2015-10-06 22:15,Not ranked,WALNUT C AT NEKOMA, KS 07141220: Flow=0.00cfs,Stage=2.89ft,2015-10-06 22:00,Not ranked,ARKANSAS R NR LARNED, KS 07141200: Flow=0.00cfs,Stage=5.79ft,Floodstage=31ft,2015-10-06 21:30,Not ranked,PAWNEE R AT ROZEL, KS 07141000: Flow=0.00cfs,Stage=1.84ft,2015-10-06 21:45,Not ranked,BUCKNER C AT HANSTON, KS 07140900: Flow=0.01cfs,Stage=2.35ft,2015-10-06 22:15,Not ranked,BUCKNER C NR JETMORE, KS 07140890: Flow=2.0cfs,Stage=3.04ft,2015-10-06 21:45,Not ranked,BUCKNER C BL HORSETHIEF RE NR JETMORE, KS 07140880: Flow=0.89cfs,Stage=3.81ft,2015-10-06 22:15,Not ranked,BUCKNER C AB HORSETHIEF RE NR JETMORE, KS 07140850: Flow=0.00cfs,Stage=2.21ft,Floodstage=30ft,2015-10-06 22:00,Not ranked,PAWNEE R NR BURDETT, KS 07139500: Stage=6.00ft,Floodstage=11ft,2015-10-06 22:00,Not ranked,ARKANSAS R AT DODGE CITY, KS 07139000: Flow=0.00cfs,Stage=5.23ft,Floodstage=10ft,2015-10-06 22:30,Not ranked,ARKANSAS R AT GARDEN CITY, KS 07138075: Flow=18cfs,Stage=2.60ft,2015-10-06 22:00,Not ranked,FARMERS DITCH NR DEERFIELD, KS 07138070: Flow=28cfs,Stage=6.63ft,Floodstage=14ft,2015-10-06 21:45,Not ranked,ARKANSAS R AT DEERFIELD, KS 07138064: Flow=9.1cfs,Stage=5.69ft,2015-10-06 22:15,Not ranked,SOUTHSIDE DITCH RETURN NR DEERFIELD, KS 07138063: Flow=18cfs,Stage=2.61ft,2015-10-06 22:00,Not ranked,SOUTHSIDE DITCH NR LAKIN, KS 07138050: Stage=2.18ft,2015-10-06 22:00:00,Not ranked,Equipment malfunction,AMAZON GREAT EASTERN DITCH NR LAKIN, KS 07138020: Flow=104cfs,Stage=6.02ft,2015-10-06 21:45,Not ranked,ARKANSAS R AT KENDALL, KS 07137010: Flow=0.00cfs,Stage=1.96ft,2015-10-06 21:45,Not ranked,FRONTIER DITCH RETURN NR COOLIDGE, KS 07137000: Flow=0.00cfs,Stage=9.20ft,2015-10-06 21:45,Not ranked,FRONTIER DITCH NR COOLIDGE, KS 07134990: Flow=5.1cfs,Stage=2.54ft,2015-10-06 21:15,Not ranked,WILD HORSE CREEK ABOVE HOLLY, CO 06917630: Flow=0.00cfs,Stage=1.21ft,2015-10-06 21:15,Not ranked,East Drywood Creek at Prairie State Park 06917560: Flow=1.1cfs,Stage=1.82ft,Floodstage=25ft,2015-10-06 22:15,Not ranked,Marmaton River near Richards, MO 06917380: Flow=194cfs,2008-11-12 23:45,Not ranked,MARMATON R NR MARMATON, KS 06917240: Flow=14cfs,Stage=0.10ft,2015-10-06 22:00,Not ranked,MARMATON R NR UNIONTOWN, KS 06914995: Stage=917.86ft,2015-10-06 22:30,Not ranked,HILLSDALE LK NR HILLSDALE, KS 06914990: Flow=1.3cfs,Stage=2.74ft,2015-10-06 21:30,Not ranked,L BULL C NR SPRING HILL, KS 06914950: Flow=1.2cfs,Stage=2.03ft,2015-10-06 22:00,Not ranked,BIG BULL C NR EDGERTON, KS 06914500: Flow=2.6cfs,Stage=5.48ft,2015-10-06 21:30,Not ranked,POTTAWATOMIE C AT LANE, KS 06914100: Stage=3.15ft,2015-10-06 21:45:00,Floodstage=23ft,Not ranked,POTTAWATOMIE C NR SCIPIO, KS 06912490: Stage=973.84ft,2015-10-06 21:45,Not ranked,POMONA LK NR QUENEMO, KS 06911490: Flow=0.00cfs,Stage=0.50ft,Floodstage=10ft,2015-10-06 21:30,Not ranked,SALT C AT LYNDON, KS 06910997: Stage=1035.69ft,2015-10-06 22:30,Not ranked,MELVERN LK NR MELVERN, KS 06893578: Flow=51cfs,Stage=5.38ft,Floodstage=33ft,2015-10-06 21:30,Not ranked,Blue River at Stadium Drive in Kansas City, MO 06893562: Stage=4.46ft,2015-10-06 21:45,Not ranked,Brush Creek at Rockhill Road in Kansas City, MO 06893557: Flow=0.59cfs,Stage=35.62ft,Floodstage=47ft,2015-10-06 22:15,Not ranked,Brush Creek at Ward Parkway in Kansas City, MO 06893400: Stage=83.03ft,2015-10-06 21:30,Not ranked,Indian Creek at 103rd St in Kansas City, MO 06893390: Flow=26cfs,Stage=10.24ft,Floodstage=20ft,2015-10-06 21:30,Not ranked,INDIAN C AT STATE LINE RD, LEAWOOD, KS 06893350: Flow=3.7cfs,Stage=1.79ft,2015-10-06 22:15,Not ranked,TOMAHAWK C NR OVERLAND PARK, KS 06893150: Flow=8.1cfs,Stage=24.67ft,Floodstage=35ft,2015-10-06 22:00,Not ranked,Blue River at Blue Ridge Blvd Ext in KC, MO 06893100: Flow=0.81cfs,Stage=4.85ft,2015-10-06 21:30,Not ranked,BLUE R AT KENNETH RD, OVERLAND PARK, KS 06892950: Stage=12.90ft,Floodstage=33ft,2015-10-06 21:45,Not ranked,KANSAS R AT KANSAS CITY, KS 06892513: Flow=5.7cfs,Stage=48.48ft,2015-10-06 21:30,Not ranked,MILL C AT JOHNSON DRIVE, SHAWNEE, KS 06892495: Flow=5.7cfs,Stage=57.30ft,2015-10-06 21:45,Not ranked,CEDAR C NR DESOTO, KS 06892494: Stage=3.21ft,2015-10-06 22:00,Not ranked,CAMP C AT 95TH ST NR DESOTO, KS 06892493: 2015-01-26 23:45,Not ranked,CEDAR C AT 95TH ST NR DESOTO, KS 06892360: Stage=5.20ft,2015-10-06 21:30:00,Not ranked,Temporarily unavailable,KILL C AT 95TH ST NR DESOTO, KS 06891850: Flow=4.8cfs,Stage=2.07ft,2015-10-06 21:30,Not ranked,STRANGER C AT EASTON, KS 06891810: Flow=85cfs,Stage=3.75ft,2015-06-11 08:30,Not ranked,STRANGER C NR POTTER, KS 06891478: Stage=877.18ft,2015-10-06 22:00,Not ranked,CLINTON LK NR LAWRENCE, KS 06891260: Flow=10cfs,Stage=3.72ft,2015-10-06 21:30,Not ranked,WAKARUSA R NR RICHLAND, KS 06891200: Stage=3.22ft,Floodstage=15ft,2015-10-06 22:15,Not ranked,WAKARUSA R AT WAKARUSA, KS 06891080: Flow=1350cfs,Stage=-12.17ft,2015-10-06 21:45,Not ranked,KANSAS R AT LAWRENCE, KS 06890898: Stage=892.90ft,2015-10-06 22:30,Not ranked,PERRY LK NR PERRY, KS 06889630: Flow=9.5cfs,Stage=4.60ft,Floodstage=24ft,2015-10-06 22:15,Not ranked,SHUNGANUNGA C AT TOPEKA, KS 06889585: Stage=4.97ft,Floodstage=15ft,2015-10-06 22:15,Not ranked,SHUNGANUNGA C AT GAGE BLVD, TOPEKA, KS 06888700: Stage=7.02ft,Floodstage=25ft,2015-10-06 22:30,Not ranked,CROSS C AT ROSSVILLE, KS 06888350: Flow=1030cfs,Stage=5.40ft,Floodstage=20ft,2015-10-06 10:30,Not ranked,KANSAS R NR BELVUE, KS 06887500: Flow=761cfs,Stage=3.42ft,Floodstage=19ft,2015-10-06 21:30,Not ranked,KANSAS R AT WAMEGO, KS 06886900: Stage=1074.41ft,2015-10-06 21:00,Not ranked,TUTTLE C LK NR MANHATTAN, KS 06884700: Stage=16.07ft,Floodstage=26ft,2015-10-06 22:15,Not ranked,BIG BLUE R AT BLUE RAPIDS, KS 06879820: Stage=5.14ft,Floodstage=18ft,2015-10-06 22:00,Not ranked,KANSAS R AT MANHATTAN, KS 06879815: Stage=2.23ft,2015-10-06 22:00,Not ranked,WILDCAT C AT SETH CHILDS RD, MANHATTAN, KS 06879810: Flow=2.2cfs,Stage=2.58ft,2015-10-06 22:15,Not ranked,WILDCAT C AT SCENIC DRIVE, MANHATTAN, KS 06879805: Stage=7.08ft,2015-10-06 22:00,Not ranked,WILDCAT C AT KEATS, KS 06879650: Flow=0.00cfs,Stage=2.32ft,2015-10-06 21:45,Not ranked,KINGS C NR MANHATTAN, KS 06878600: Flow=29cfs,Stage=5.59ft,2015-10-06 22:15,Not ranked,LYON C NR JUNCTION CITY, KS 06876440: Flow=42cfs,Stage=2.30ft,2015-10-06 22:15,Not ranked,SOLOMON R NR MINNEAPOLIS, KS 06876070: Stage=7.07ft,2015-10-06 22:15,Not ranked,SOLOMON R NR SIMPSON, KS 06874000: Stage=3.95ft,2015-10-06 21:30:00,Floodstage=14ft,Not ranked,Temporarily unavailable,SF SOLOMON R AT OSBORNE, KS 06873000: Flow=0.00cfs,Stage=1.29ft,Floodstage=7ft,2015-10-06 22:15,Not ranked,SF SOLOMON R AB WEBSTER RE, KS 06871500: Stage=4.27ft,2015-10-06 21:45:00,Floodstage=9ft,Not ranked,Temporarily unavailable,BOW C NR STOCKTON, KS 06871000: Flow=0.00cfs,Stage=2.27ft,Floodstage=11ft,2015-10-06 21:30,Not ranked,NF SOLOMON R AT GLADE, KS 06870200: Stage=4.71ft,Floodstage=27ft,2015-10-06 21:45,Not ranked,SMOKY HILL R AT NEW CAMBRIA, KS 06869950: Flow=0.04cfs,Stage=2.32ft,Floodstage=24ft,2015-10-06 22:00,Not ranked,MULBERRY C NR SALINA, KS 06868850: Flow=9.4cfs,Stage=10.31ft,2015-10-06 21:45,Not ranked,SALINE R AT LINCOLN, KS 06868100: Stage=1506.07ft,2015-10-06 21:30,Not ranked,WILSON LK NR WILSON, KS 06867500: Flow=0.00cfs,Stage=8.46ft,2015-10-06 22:30,Not ranked,PARADISE C NR PARADISE, KS 06867000: Stage=4.51ft,2015-10-06 22:30:00,Floodstage=18ft,Not ranked,Temporarily unavailable,SALINE R NR RUSSELL, KS 06866900: Flow=0.00cfs,Stage=1.09ft,Floodstage=13ft,2015-10-06 22:00,Not ranked,SALINE R NR WAKEENEY, KS 06865000: Stage=1463.43ft,2015-10-06 21:30,Not ranked,KANOPOLIS LK NR KANOPOLIS, KS 06864050: Flow=58cfs,2011-06-08 23:45,Not ranked,SMOKY HILL R NR BUNKER HILL, KS 06863420: Flow=0.10cfs,Stage=1.39ft,2015-10-06 22:15,Not ranked,BIG C NR ELLIS, KS 06863000: Flow=0.00cfs,Stage=0.35ft,2015-10-06 22:00,Not ranked,SMOKY HILL R AT PFEIFER, KS 06862850: Flow=0.00cfs,Stage=1.90ft,Floodstage=11ft,2015-10-06 22:00,Not ranked,SMOKY HILL R BL SCHOENCHEN, KS 06861500: Stage=2119.47ft,2015-10-06 22:15,Not ranked,CEDAR BLUFF RE NR ELLIS, KS 06860900: Flow=0.00cfs,Stage=6.97ft,2015-10-06 22:30,Not ranked,HACKBERRY C NR TREGO CENTER, KS 06860000: Flow=0.00cfs,Stage=3.53ft,Floodstage=9ft,2015-10-06 22:30,Not ranked,SMOKY HILL R AT ELKADER, KS 06857050: Stage=1146.21ft,2015-10-06 22:30,Not ranked,MILFORD LK NR JUNCTION CITY, KS 06855850: Flow=1.9cfs,Stage=3.95ft,2015-10-06 22:15,Not ranked,BUFFALO C 4 MI E OF JAMESTOWN, KS 06854000: Stage=-0.01ft,2015-10-06 21:45,Not ranked,WHITE ROCK C AT LOVEWELL, KS 06853020: Flow=2.4cfs,Stage=2.72ft,2015-10-06 21:30,Not ranked,Republican River at Guide Rock, Nebr. 06848500: Flow=0.00cfs,Stage=1.08ft,Floodstage=21ft,2015-10-06 22:30,Not ranked,PRAIRIE DOG C NR WOODRUFF, KS 06847900: Flow=0.00cfs,Stage=2.63ft,Floodstage=11ft,2015-10-06 21:45,Not ranked,PRAIRIE DOG C AB KEITH SEBELIUS LAKE, KS 06846500: Flow=0.00cfs,Stage=2.79ft,Floodstage=16ft,2015-10-06 22:00,Not ranked,BEAVER C AT CEDAR BLUFFS, KS 06845110: Flow=0.14cfs,Stage=4.50ft,Floodstage=17ft,2015-10-06 21:30,Not ranked,SAPPA C NR LYLE, KS 06827500: Flow=0.00cfs,Stage=-0.87ft,Floodstage=9ft,2015-10-06 20:30,Not ranked,South Fork Republican River near Benkelman, Nebr. 06827000: Flow=4.5cfs,Stage=3.26ft,2015-10-06 21:45,Not ranked,SF REPUBLICAN R NR CO-KS ST LINE, KS 06820475: Stage=7.05ft,2015-10-06 22:00,Not ranked,MISSOURI R AT LEAVENWORTH, KS Go to WaterWatch (offsite) for a larger map with additional options
USGS Home Water Resources Biology Geography Geology Geospatial

Accessibility FOIA Privacy Policies and Notices

Take Pride in America logo logo U.S. Department of the Interior | U.S. Geological Survey
Page Contact Information:
Page Last Modified: 2015-10-01 11:02:00 CDT